Weather History for Fort Leonard Wood, MO

Change the Weather History Date:

Friday, January 31, 2014

  Actual Average Record
Temperature  
Mean Temperature 32 °F -  
Max Temperature 35 °F 42 °F 64 °F (1997)
Min Temperature 29 °F 27 °F 3 °F (2007)
Degree Days  
Heating Degree Days 33    
Moisture  
Dew Point 28 °F    
Average Humidity 87    
Maximum Humidity 100    
Minimum Humidity 52    
Precipitation  
Precipitation 0.00 in - - ()
Sea Level Pressure  
Sea Level Pressure 29.96 in    
Wind  
Wind Speed 7 mph (East)    
Max Wind Speed 12 mph    
Max Gust Speed -    
Visibility 6 miles    
Events Fog    
Averages and records for this station are not official NWS values.
T = Trace of Precipitation, MM = Missing Value Source: NWS Daily Summary

Daily Weather History Graph

Daily Weather History Graph

Search for Another Location

Airport:

Trip Planner

Search our weather history database for the weather conditions in past years. The results will help you decide how hot, cold, wet, or windy it might be!

Date:

Astronomy

Jan. 31, 2014 Rise Set
Actual Time 7:13 AM CST 5:31 PM CST
Civil Twilight 6:45 AM CST 5:58 PM CST
Nautical Twilight 6:14 AM CST 6:30 PM CST
Astronomical Twilight 5:43 AM CST 7:01 PM CST
Moon 7:25 AM CST (1/31) 6:53 PM CST (1/31)
Length of Visible Light 11h 13m
Length of Day
10h 17m
New Moon, 1% of the Moon is Illuminated
Jan 31
New Moon
Feb 6
First Quarter
Feb 14
Full
Feb 22
Last Quarter
Mar 1
New

Hourly Weather History & Observations

Time (CST) Temp. Windchill Dew Point Humidity Pressure Visibility Wind Dir Wind Speed Gust Speed Precip Events Conditions
12:58 AM 29.7 °F 23.7 °F 19.0 °F 65% 29.97 in 10.0 mi South 5.8 mph - N/A   Partly Cloudy
1:58 AM 32.7 °F 29.6 °F 22.3 °F 65% 29.98 in 10.0 mi South 3.5 mph - N/A   Overcast
2:58 AM 31.1 °F 24.5 °F 21.4 °F 67% 30.01 in 10.0 mi NNW 6.9 mph - N/A   Overcast
3:58 AM 30.4 °F 23.6 °F 22.5 °F 72% 29.98 in 10.0 mi SE 6.9 mph - N/A   Partly Cloudy
4:58 AM 29.1 °F - 21.7 °F 74% 29.99 in 10.0 mi Calm Calm - N/A   Clear
5:58 AM 29.3 °F 23.2 °F 21.6 °F 73% 30.00 in 10.0 mi NE 5.8 mph - N/A   Scattered Clouds
6:58 AM 30.4 °F 24.5 °F 21.4 °F 69% 30.01 in 10.0 mi NE 5.8 mph - N/A   Overcast
7:58 AM 31.3 °F 25.6 °F 21.2 °F 66% 30.04 in 10.0 mi NE 5.8 mph - N/A   Overcast
8:58 AM 31.6 °F 26.0 °F 20.3 °F 63% 30.06 in 10.0 mi ENE 5.8 mph - N/A   Overcast
9:58 AM 32.5 °F 26.2 °F 20.3 °F 61% 30.04 in 10.0 mi East 6.9 mph - N/A   Overcast
10:58 AM 33.8 °F 26.4 °F 20.1 °F 57% 30.06 in 10.0 mi NE 9.2 mph - N/A   Overcast
11:03 AM 33.8 °F 27.0 °F 21.2 °F 60% 30.02 in 10.0 mi NNE 8.1 mph - N/A   Overcast
11:58 AM 34.5 °F 27.9 °F 19.6 °F 54% 30.02 in 10.0 mi NE 8.1 mph - N/A   Overcast
12:38 PM 35.6 °F 29.9 °F 19.4 °F 52% 29.97 in 10.0 mi ENE 6.9 mph - N/A   Overcast
12:48 PM 35.6 °F 28.6 °F 19.4 °F 52% 29.95 in 10.0 mi NE 9.2 mph - N/A   Overcast
12:58 PM 35.1 °F 28.6 °F 20.8 °F 56% 29.99 in 10.0 mi ENE 8.1 mph - N/A   Overcast
1:58 PM 34.5 °F 26.2 °F 26.2 °F 72% 29.96 in 10.0 mi East 11.5 mph - N/A   Overcast
2:35 PM 32.0 °F 24.2 °F 32.0 °F 100% 29.93 in 6.0 mi East 9.2 mph - N/A   Light Drizzle
2:36 PM 32.0 °F 24.2 °F 32.0 °F 100% 29.93 in 6.0 mi East 9.2 mph - N/A   Overcast
2:51 PM 32.0 °F 24.8 °F 32.0 °F 100% 29.94 in 6.0 mi East 8.1 mph - N/A   Overcast
2:58 PM 32.7 °F 25.0 °F 31.5 °F 95% 29.98 in 5.0 mi East 9.2 mph - N/A   Overcast
3:03 PM 32.0 °F 25.6 °F 32.0 °F 100% 29.94 in 5.0 mi East 6.9 mph - N/A   Overcast
3:28 PM 32.0 °F 26.4 °F 32.0 °F 100% 29.93 in 5.0 mi ENE 5.8 mph - N/A   Overcast
3:58 PM 32.0 °F 24.8 °F 32.0 °F 100% 29.97 in 4.0 mi ENE 8.1 mph - N/A   Overcast
3:59 PM 32.0 °F 24.8 °F 32.0 °F 100% 29.93 in 4.0 mi ENE 8.1 mph - N/A   Overcast
4:08 PM 32.0 °F 25.6 °F 32.0 °F 100% 29.93 in 3.0 mi East 6.9 mph - N/A   Overcast
4:23 PM 32.0 °F 24.8 °F 32.0 °F 100% 29.92 in 4.0 mi East 8.1 mph - N/A   Overcast
4:58 PM 32.2 °F 25.8 °F 32.2 °F 100% 29.96 in 4.0 mi East 6.9 mph - 0.00 in   Overcast
5:13 PM 32.0 °F 25.6 °F 32.0 °F 100% 29.92 in 5.0 mi East 6.9 mph - N/A   Overcast
5:58 PM 32.4 °F 26.9 °F 32.4 °F 100% 29.97 in 8.0 mi East 5.8 mph - N/A   Overcast
6:08 PM 32.0 °F 26.4 °F 32.0 °F 100% 29.93 in 7.0 mi East 5.8 mph - N/A   Overcast
6:22 PM 32.0 °F 27.5 °F 32.0 °F 100% 29.94 in 4.0 mi East 4.6 mph - N/A   Overcast
6:33 PM 32.0 °F 27.5 °F 32.0 °F 100% 29.94 in 4.0 mi East 4.6 mph - N/A   Overcast
6:58 PM 32.2 °F 26.7 °F 32.2 °F 100% 29.97 in 4.0 mi East 5.8 mph - 0.00 in   Overcast
7:48 PM 32.0 °F 24.8 °F 32.0 °F 100% 29.92 in 2.5 mi ESE 8.1 mph - N/A   Overcast
7:58 PM 32.0 °F 24.2 °F 32.0 °F 100% 29.97 in 2.5 mi East 9.2 mph - N/A   Overcast
8:13 PM 32.0 °F 24.8 °F 32.0 °F 100% 29.92 in 3.0 mi ESE 8.1 mph - N/A   Overcast
8:18 PM 32.0 °F 25.6 °F 32.0 °F 100% 29.92 in 2.5 mi ESE 6.9 mph - N/A   Overcast
8:43 PM 32.0 °F 24.8 °F 32.0 °F 100% 29.92 in 1.8 mi East 8.1 mph - N/A   Overcast
8:58 PM 32.0 °F 25.6 °F 32.0 °F 100% 29.96 in 1.5 mi ESE 6.9 mph - N/A   Overcast
9:13 PM 32.0 °F 25.6 °F 32.0 °F 100% 29.92 in 1.2 mi ESE 6.9 mph - N/A   Overcast
9:23 PM 32.0 °F 26.4 °F 32.0 °F 100% 29.92 in 1.0 mi ESE 5.8 mph - N/A   Mist
9:43 PM 32.0 °F 24.8 °F 32.0 °F 100% 29.91 in 0.8 mi ESE 8.1 mph - N/A   Mist
9:48 PM 32.0 °F 25.6 °F 32.0 °F 100% 29.90 in 0.8 mi ESE 6.9 mph - N/A   Mist
9:58 PM 32.2 °F 26.7 °F 32.2 °F 100% 29.94 in 0.8 mi ESE 5.8 mph - N/A   Mist
10:08 PM 32.0 °F 26.4 °F 32.0 °F 100% 29.90 in 0.8 mi ESE 5.8 mph - N/A   Mist
10:58 PM 32.4 °F 25.3 °F 32.4 °F 100% 29.93 in 0.5 mi ESE 8.1 mph - N/A Fog Fog
11:58 PM 32.7 °F 25.0 °F 32.7 °F 100% 29.90 in 0.5 mi SE 9.2 mph - N/A Fog Fog